PWCRAW Weather Reports


time (UTC)temp
C
wind
direction
speed
KPH
gust
KPH
rain 1hr
cm
rain 24hr
cm
rain mn
cm
humidity
%
barometer
mb
20260506132504 18 236 6.4 14.5 0.00 2.54 0.20 61 1003.6
20260506132404 18 235 4.8 14.5 0.00 2.54 0.20 62 1003.7
20260506132307 18 235 4.8 14.5 0.00 2.54 0.20 60 1003.8
20260506132204 18 238 4.8 14.5 0.00 2.54 0.20 61 1003.6
20260506132106 18 238 4.8 14.5 0.00 2.54 0.20 61 1003.7
20260506132005 18 232 6.4 20.9 0.00 2.54 0.20 59 1003.8
20260506131912 18 227 6.4 20.9 0.00 2.54 0.20 59 1003.9
20260506131904 18 226 6.4 20.9 0.00 2.54 0.20 59 1003.9
20260506131804 18 221 6.4 20.9 0.00 2.54 0.20 60 1003.9
20260506131606 19 209 9.7 29.0 0.00 2.54 0.20 60 1003.7
20260506131504 19 204 9.7 29.0 0.00 2.54 0.20 59 1003.9
20260506131404 19 204 9.7 29.0 0.00 2.54 0.20 60 1003.7
20260506131305 19 201 9.7 29.0 0.00 2.54 0.20 60 1003.9
20260506131206 19 197 9.7 29.0 0.00 2.54 0.20 58 1003.8
20260506131104 19 195 9.7 29.0 0.00 2.54 0.20 59 1003.9
20260506131004 19 198 9.7 29.0 0.00 2.54 0.20 60 1003.8
20260506130904 19 198 9.7 29.0 0.00 2.54 0.20 58 1003.9
20260506130804 19 198 9.7 29.0 0.00 2.54 0.20 58 1004.1
20260506130705 19 201 9.7 29.0 0.00 2.54 0.20 58 1003.9
20260506130604 19 202 8.0 20.9 0.00 2.54 0.20 60 1003.8
20260506130504 19 206 8.0 17.7 0.00 2.54 0.20 61 1003.9
20260506130404 19 206 8.0 17.7 0.00 2.54 0.20 60 1003.9
20260506130304 19 205 8.0 17.7 0.00 2.54 0.20 60 1003.7
20260506130204 19 207 8.0 17.7 0.00 2.54 0.20 58 1003.8
20260506130104 19 206 8.0 17.7 0.00 2.54 0.20 59 1003.9
20260506130006 19 206 9.7 22.5 0.00 2.54 0.20 58 1003.8
20260506125904 19 208 9.7 24.1 0.00 2.54 0.20 57 1003.8
20260506125804 19 209 9.7 24.1 0.00 2.54 0.20 58 1003.8
20260506125705 19 208 9.7 24.1 0.00 2.54 0.20 57 1003.9
20260506125604 19 206 11.3 25.7 0.00 2.54 0.20 57 1004.0
20260506125504 20 206 11.3 25.7 0.00 2.54 0.20 57 1003.9
20260506125405 20 201 11.3 25.7 0.00 2.54 0.20 57 1004.0
20260506125305 20 205 11.3 25.7 0.00 2.54 0.20 56 1003.9
20260506125204 20 207 12.9 25.7 0.00 2.54 0.20 57 1004.0
20260506125111 20 210 12.9 27.4 0.00 2.54 0.20 57 1004.0
20260506125104 20 211 14.5 27.4 0.00 2.54 0.20 57 1004.0
20260506125004 20 212 14.5 27.4 0.00 2.54 0.20 58 1003.8
20260506124804 19 213 12.9 27.4 0.00 2.54 0.20 57 1003.9
20260506124704 19 212 12.9 27.4 0.00 2.54 0.20 58 1004.0
20260506124604 19 216 12.9 27.4 0.00 2.54 0.20 58 1004.0
20260506124511 19 214 14.5 27.4 0.00 2.54 0.20 58 1004.0
20260506124504 19 215 14.5 27.4 0.00 2.54 0.20 58 1004.0
20260506124404 18 218 14.5 27.4 0.00 2.54 0.20 58 1004.0
20260506124204 18 222 12.9 27.4 0.00 2.54 0.20 59 1004.0
20260506124105 18 223 12.9 25.7 0.00 2.54 0.20 59 1003.8
20260506124004 18 225 11.3 25.7 0.00 2.54 0.20 60 1003.9
20260506123904 18 225 11.3 25.7 0.00 2.54 0.20 60 1003.9
20260506123804 18 224 12.9 25.7 0.00 2.54 0.20 60 1004.0
20260506123704 18 228 11.3 25.7 0.00 2.54 0.20 60 1003.9
20260506123504 18 232 11.3 25.7 0.00 2.54 0.20 60 1004.0
20260506123404 18 232 11.3 22.5 0.00 2.54 0.20 63 1003.9
20260506123304 18 233 11.3 22.5 0.00 2.54 0.20 63 1003.8
20260506123211 18 232 11.3 25.7 0.00 2.54 0.20 63 1003.8
20260506123204 18 231 11.3 25.7 0.00 2.54 0.20 63 1003.8
20260506123105 18 228 12.9 25.7 0.00 2.54 0.20 62 1004.1
20260506122904 18 224 12.9 25.7 0.00 2.54 0.20 62 1004.1
20260506122804 18 221 12.9 25.7 0.00 2.54 0.20 59 1003.8
20260506122711 18 221 12.9 25.7 0.00 2.54 0.20 62 1004.1
20260506122704 18 220 12.9 25.7 0.00 2.54 0.20 62 1004.1
20260506122604 18 221 12.9 25.7 0.00 2.54 0.20 63 1004.0
20260506122404 18 227 12.9 25.7 0.00 2.54 0.20 60 1004.0
20260506122306 19 226 12.9 25.7 0.00 2.54 0.20 61 1003.9
20260506122204 19 225 12.9 24.1 0.00 2.54 0.20 61 1004.0
20260506122104 19 229 11.3 22.5 0.00 2.54 0.20 60 1004.1
20260506122004 18 231 11.3 22.5 0.00 2.54 0.20 61 1004.0
20260506121904 18 233 9.7 22.5 0.00 2.54 0.20 61 1004.0
20260506121804 18 237 9.7 20.9 0.00 2.54 0.20 61 1003.9
20260506121704 18 238 8.0 17.7 0.00 2.54 0.20 63 1003.9
20260506121605 18 237 8.0 17.7 0.00 2.54 0.20 62 1003.8
20260506121504 18 235 9.7 22.5 0.00 2.54 0.20 60 1003.9
20260506121404 18 228 8.0 22.5 0.00 2.54 0.20 62 1003.9
20260506121304 18 229 8.0 22.5 0.00 2.54 0.20 63 1004.1
20260506121211 18 229 8.0 22.5 0.00 2.54 0.20 64 1004.1
20260506121204 18 229 8.0 22.5 0.00 2.54 0.20 64 1004.1
20260506121111 18 230 8.0 22.5 0.00 2.54 0.20 63 1004.0
20260506121105 18 231 8.0 22.5 0.00 2.54 0.20 63 1004.0
20260506120804 18 235 9.7 22.5 0.00 2.54 0.20 62 1004.0
20260506120704 18 235 9.7 22.5 0.00 2.54 0.20 62 1003.9
20260506120611 18 237 9.7 22.5 0.00 2.54 0.20 62 1003.9
20260506120605 18 238 9.7 22.5 0.00 2.54 0.20 64 1003.9
20260506120504 18 238 9.7 20.9 0.00 2.54 0.20 64 1003.9
20260506120304 18 235 9.7 20.9 0.00 2.54 0.20 62 1003.9
20260506120204 18 234 9.7 20.9 0.00 2.54 0.20 62 1003.8
20260506120105 18 231 9.7 20.9 0.00 2.54 0.20 61 1003.9
20260506120005 18 228 11.3 24.1 0.00 2.54 0.20 62 1003.8
20260506115904 18 232 11.3 24.1 0.00 2.54 0.20 61 1003.9
20260506115804 18 236 11.3 27.4 0.00 2.54 0.20 64 1003.9
20260506115704 18 237 11.3 27.4 0.00 2.54 0.20 63 1004.1
20260506115604 18 235 11.3 27.4 0.00 2.54 0.20 62 1004.0
20260506115504 18 233 12.9 27.4 0.00 2.54 0.20 61 1004.0
20260506115411 18 233 12.9 27.4 0.00 2.54 0.20 61 1004.0
20260506115404 18 234 12.9 27.4 0.00 2.54 0.20 61 1004.0
20260506115307 18 233 12.9 27.4 0.00 2.54 0.20 63 1004.0
20260506115111 18 235 12.9 27.4 0.00 2.54 0.20 61 1004.0
20260506115004 18 239 11.3 27.4 0.00 2.54 0.20 62 1003.9
20260506114804 18 229 9.7 22.5 0.00 2.54 0.20 61 1004.1
20260506114705 18 228 9.7 22.5 0.00 2.54 0.20 62 1003.9
20260506114505 18 229 8.0 22.5 0.00 2.54 0.20 61 1004.0
20260506114404 18 233 9.7 22.5 0.00 2.54 0.20 61 1004.0
20260506114304 18 238 9.7 20.9 0.00 2.54 0.20 64 1003.9
20260506114104 18 235 9.7 20.9 0.00 2.54 0.20 62 1003.7
20260506114005 18 231 8.0 20.9 0.00 2.54 0.20 65 1003.9
20260506113904 18 231 8.0 20.9 0.00 2.54 0.20 63 1004.0
20260506113704 18 229 9.7 22.5 0.00 2.54 0.20 63 1003.8
20260506113604 18 221 9.7 22.5 0.00 2.54 0.20 62 1003.9
20260506113304 18 205 9.7 22.5 0.00 2.54 0.20 64 1004.0
20260506113204 18 205 8.0 22.5 0.00 2.54 0.20 64 1003.8
20260506113104 18 207 9.7 22.5 0.00 2.54 0.20 63 1004.0
20260506113004 18 205 9.7 22.5 0.00 2.54 0.20 63 1004.0
20260506112911 18 207 9.7 22.5 0.00 2.54 0.20 62 1004.1
20260506112904 18 208 11.3 22.5 0.00 2.54 0.20 62 1004.1
20260506112804 18 208 11.3 22.5 0.00 2.54 0.20 63 1004.1
20260506112604 18 220 9.7 22.5 0.00 2.54 0.20 63 1003.8
20260506112504 18 225 9.7 22.5 0.00 2.54 0.20 66 1004.1
20260506112404 18 230 9.7 22.5 0.00 2.54 0.20 66 1004.1
20260506112306 18 227 9.7 22.5 0.00 2.54 0.20 65 1004.1
20260506112204 18 227 9.7 22.5 0.00 2.54 0.20 64 1003.9
20260506112104 18 225 9.7 22.5 0.00 2.54 0.20 63 1003.9
20260506112004 18 226 9.7 22.5 0.00 2.54 0.20 63 1003.9
20260506111904 18 222 9.7 22.5 0.00 2.54 0.20 63 1004.0
20260506111811 18 220 9.7 22.5 0.00 2.54 0.20 63 1004.0
20260506111704 18 216 9.7 22.5 0.00 2.54 0.20 63 1004.1
20260506111504 18 212 8.0 17.7 0.00 2.54 0.20 61 1004.2
20260506111404 18 212 8.0 17.7 0.00 2.54 0.20 61 1004.1
20260506111304 19 214 8.0 16.1 0.00 2.54 0.20 60 1004.1
20260506111204 19 215 8.0 16.1 0.00 2.54 0.20 60 1003.9
20260506111104 19 214 8.0 16.1 0.00 2.54 0.20 60 1004.1
20260506111004 19 215 8.0 20.9 0.00 2.54 0.20 62 1004.1
20260506110904 19 215 9.7 20.9 0.00 2.54 0.20 62 1004.0
20260506110804 19 214 9.7 20.9 0.00 2.54 0.20 62 1004.0
20260506110704 19 214 9.7 27.4 0.00 2.54 0.20 63 1004.1
20260506110604 19 213 9.7 27.4 0.00 2.54 0.20 62 1004.2
20260506110504 19 212 11.3 27.4 0.00 2.54 0.20 61 1004.1
20260506110404 19 212 11.3 27.4 0.00 2.54 0.20 62 1004.1
20260506110304 19 211 11.3 27.4 0.00 2.54 0.20 61 1004.1
20260506110204 19 209 11.3 27.4 0.00 2.54 0.20 61 1004.2
20260506110111 19 210 12.9 27.4 0.00 2.54 0.20 61 1004.0
20260506110104 19 211 12.9 27.4 0.00 2.54 0.20 61 1004.0
20260506110005 19 211 12.9 27.4 0.00 2.54 0.20 61 1004.1
20260506105804 18 213 12.9 27.4 0.00 2.54 0.20 61 1004.1
20260506105704 18 214 11.3 27.4 0.00 2.54 0.20 63 1003.8
20260506105604 18 213 11.3 27.4 0.00 2.54 0.20 63 1003.9
20260506105504 18 215 11.3 27.4 0.00 2.54 0.20 63 1004.0
20260506105404 18 217 11.3 27.4 0.00 2.54 0.20 62 1004.0
20260506105305 18 217 11.3 27.4 0.00 2.54 0.20 63 1004.0
20260506105204 18 219 9.7 27.4 0.00 2.54 0.20 63 1004.0
20260506105104 18 217 9.7 27.4 0.00 2.54 0.20 62 1004.1
20260506105011 18 218 9.7 27.4 0.00 2.54 0.20 63 1003.9
20260506105004 18 219 9.7 27.4 0.00 2.54 0.20 63 1003.9
20260506104911 18 219 8.0 24.1 0.00 2.54 0.20 62 1003.9
20260506104904 18 220 8.0 20.9 0.00 2.54 0.20 62 1003.9
20260506104604 18 218 9.7 22.5 0.00 2.54 0.20 63 1003.9
20260506104504 18 215 9.7 22.5 0.00 2.54 0.20 62 1003.9
20260506104404 18 214 9.7 22.5 0.00 2.54 0.20 63 1004.2
20260506104305 18 215 9.7 30.6 0.00 2.54 0.20 61 1004.1
20260506104204 18 213 9.7 30.6 0.00 2.54 0.20 64 1004.0
20260506104104 18 213 9.7 30.6 0.00 2.54 0.20 60 1004.0
20260506103904 18 212 9.7 30.6 0.00 2.54 0.20 62 1004.0
20260506103804 18 215 9.7 30.6 0.00 2.54 0.20 65 1003.8
20260506103704 18 213 9.7 30.6 0.00 2.54 0.20 64 1004.0
20260506103604 18 213 9.7 30.6 0.00 2.54 0.20 62 1004.1
20260506103504 18 216 9.7 30.6 0.00 2.54 0.20 64 1004.0
20260506103404 18 216 9.7 30.6 0.00 2.54 0.20 65 1004.2
20260506103304 18 213 9.7 22.5 0.00 2.54 0.20 65 1003.9
20260506103204 17 212 9.7 22.5 0.00 2.54 0.20 65 1003.9
20260506103104 17 211 11.3 25.7 0.00 2.54 0.20 64 1004.3
20260506103004 17 211 11.3 25.7 0.00 2.54 0.20 64 1004.1
20260506102904 17 209 11.3 25.7 0.00 2.54 0.20 64 1004.3
20260506102804 17 206 11.3 25.7 0.00 2.54 0.20 65 1004.3
20260506102704 17 208 11.3 33.8 0.00 2.54 0.20 66 1004.3
20260506102611 17 207 11.3 33.8 0.00 2.54 0.20 66 1004.4
20260506102604 17 207 11.3 33.8 0.00 2.54 0.20 66 1004.4
20260506102504 17 202 11.3 33.8 0.00 2.54 0.20 67 1004.5
20260506102204 17 200 12.9 33.8 0.00 2.54 0.20 67 1004.4
20260506102104 17 197 12.9 35.4 0.00 2.54 0.20 68 1004.5
20260506102004 17 197 12.9 35.4 0.00 2.54 0.20 65 1004.4
20260506101904 17 196 14.5 35.4 0.00 2.54 0.20 66 1004.4
20260506101811 17 196 14.5 35.4 0.00 2.54 0.20 66 1004.4
20260506101804 17 196 14.5 35.4 0.00 2.54 0.20 66 1004.4
20260506101704 17 194 14.5 35.4 0.00 2.54 0.20 66 1004.5
20260506101504 17 198 14.5 35.4 0.00 2.54 0.20 67 1004.5
20260506101411 17 199 16.1 35.4 0.00 2.54 0.20 67 1004.4
20260506101404 17 199 16.1 35.4 0.00 2.54 0.20 68 1004.4
20260506101304 17 200 16.1 35.4 0.00 2.54 0.20 68 1004.4
20260506101104 17 202 16.1 35.4 0.00 2.54 0.20 66 1004.3
20260506101004 17 205 16.1 27.4 0.00 2.54 0.20 66 1004.3
20260506100904 17 205 16.1 27.4 0.00 2.54 0.20 66 1004.3
20260506100804 17 202 14.5 27.4 0.00 2.54 0.20 67 1004.3
20260506100704 17 202 14.5 27.4 0.00 2.54 0.20 66 1004.4
20260506100504 17 199 12.9 27.4 0.00 2.54 0.20 66 1004.5
20260506100404 17 200 12.9 27.4 0.00 2.54 0.20 67 1004.4
20260506100304 17 197 11.3 24.1 0.00 2.54 0.20 67 1004.3
20260506100005 17 195 11.3 22.5 0.00 2.54 0.20 68 1004.3
20260506095904 17 195 9.7 17.7 0.00 2.54 0.20 68 1004.4
20260506095804 17 198 9.7 17.7 0.00 2.54 0.20 68 1004.5
20260506095604 17 206 9.7 20.9 0.00 2.54 0.20 67 1004.3
20260506095505 17 208 9.7 20.9 0.00 2.54 0.20 68 1004.5
20260506095404 17 213 9.7 20.9 0.00 2.54 0.20 68 1004.4
20260506095305 17 216 9.7 20.9 0.00 2.54 0.20 67 1004.3
20260506095204 17 220 9.7 24.1 0.00 2.54 0.20 69 1004.3
20260506095104 17 220 8.0 24.1 0.00 2.54 0.20 69 1004.3
20260506095004 17 222 8.0 24.1 0.00 2.54 0.20 69 1004.4
20260506094904 17 225 9.7 24.1 0.00 2.54 0.20 68 1004.3
20260506094811 17 226 9.7 24.1 0.00 2.54 0.20 69 1004.4
20260506094804 17 226 9.7 24.1 0.00 2.54 0.20 69 1004.4
20260506094704 17 226 9.7 24.1 0.00 2.54 0.20 68 1004.4
20260506094504 17 223 9.7 24.1 0.00 2.54 0.20 71 1004.5
20260506094404 16 222 9.7 24.1 0.00 2.54 0.20 71 1004.3
20260506094304 16 219 9.7 24.1 0.00 2.54 0.20 70 1004.5
20260506094104 16 214 9.7 24.1 0.00 2.54 0.20 69 1004.2
20260506094005 16 216 9.7 24.1 0.00 2.54 0.20 70 1004.2
20260506093904 16 219 9.7 24.1 0.00 2.54 0.20 70 1004.3
20260506093804 16 220 9.7 24.1 0.00 2.54 0.20 72 1004.2
20260506093704 16 221 8.0 24.1 0.00 2.54 0.20 72 1004.3
20260506093604 16 217 9.7 22.5 0.00 2.54 0.20 72 1004.2
20260506093504 16 220 9.7 22.5 0.00 2.54 0.20 72 1004.3
20260506093404 15 220 11.3 29.0 0.00 2.54 0.20 72 1004.2
20260506093311 16 222 11.3 29.0 0.00 2.54 0.20 72 1004.1
20260506093304 16 224 11.3 29.0 0.00 2.54 0.20 72 1004.1
20260506093204 15 228 12.9 29.0 0.00 2.54 0.20 73 1004.2
20260506093004 16 233 12.9 29.0 0.00 2.54 0.20 71 1004.1
20260506092904 15 231 14.5 29.0 0.00 2.54 0.20 71 1004.1
20260506092804 16 231 14.5 33.8 0.00 2.54 0.20 71 1004.1
20260506092704 15 230 16.1 33.8 0.00 2.54 0.20 70 1004.0
20260506092604 15 232 16.1 33.8 0.00 2.54 0.20 70 1004.1
20260506092504 15 234 16.1 33.8 0.00 2.54 0.20 70 1004.2
20260506092404 15 237 14.5 33.8 0.00 2.54 0.20 70 1004.0
20260506092306 15 235 14.5 33.8 0.00 2.54 0.20 71 1004.1
20260506092204 15 234 14.5 33.8 0.00 2.54 0.20 72 1004.3
20260506092104 15 234 14.5 33.8 0.00 2.54 0.20 72 1004.0
20260506092004 15 229 16.1 33.8 0.00 2.54 0.20 70 1004.0
20260506091904 16 228 16.1 33.8 0.00 2.54 0.20 70 1004.0
20260506091804 16 227 14.5 33.8 0.00 2.54 0.20 70 1004.0
20260506091704 16 227 14.5 30.6 0.00 2.54 0.20 72 1004.2
20260506091605 16 226 12.9 30.6 0.00 2.54 0.20 70 1004.1
20260506091504 16 225 12.9 30.6 0.00 2.54 0.20 69 1004.0
20260506091404 16 222 12.9 30.6 0.00 2.54 0.20 70 1004.0
20260506091304 16 224 12.9 30.6 0.00 2.54 0.20 69 1004.2
20260506091104 16 222 12.9 30.6 0.00 2.54 0.20 70 1004.0
20260506091004 16 224 12.9 24.1 0.00 2.54 0.20 70 1003.9
20260506090904 16 224 12.9 24.1 0.00 2.54 0.20 69 1004.1
20260506090804 16 221 14.5 27.4 0.00 2.54 0.20 69 1004.0
20260506090704 16 222 12.9 27.4 0.00 2.54 0.20 72 1004.0
20260506090611 16 224 14.5 27.4 0.00 2.54 0.20 71 1003.8
20260506090504 16 221 14.5 27.4 0.00 2.54 0.20 71 1003.9
20260506090312 16 218 12.9 27.4 0.00 2.54 0.20 70 1004.0
20260506090304 16 217 12.9 27.4 0.00 2.54 0.20 70 1004.0
20260506090204 16 215 12.9 27.4 0.00 2.54 0.20 69 1004.0
20260506090005 16 215 11.3 27.4 0.00 2.54 0.20 69 1004.1
20260506085904 16 218 12.9 27.4 0.00 2.54 0.20 71 1003.8
20260506085804 16 222 12.9 24.1 0.00 2.54 0.20 70 1003.8
20260506085704 16 223 12.9 25.7 0.00 2.54 0.20 71 1003.8
20260506085611 16 223 12.9 25.7 0.00 2.54 0.20 71 1003.9
20260506085604 16 221 12.9 25.7 0.00 2.54 0.20 71 1003.9
20260506085504 16 218 12.9 25.7 0.00 2.54 0.20 71 1003.7
20260506085413 16 218 12.9 25.7 0.00 2.54 0.20 71 1003.8
20260506085306 16 219 14.5 25.7 0.00 2.54 0.20 71 1003.9
20260506085004 15 220 16.1 25.7 0.00 2.54 0.20 71 1003.9
20260506084904 15 219 16.1 25.7 0.00 2.54 0.20 71 1004.0
20260506084805 15 223 16.1 25.7 0.00 2.54 0.20 72 1003.8
20260506084712 15 224 16.1 25.7 0.00 2.54 0.20 72 1004.0
20260506084705 15 224 16.1 25.7 0.00 2.54 0.20 72 1004.0
20260506084604 15 225 16.1 25.7 0.00 2.54 0.20 71 1003.9
20260506084406 15 229 16.1 30.6 0.00 2.54 0.20 73 1004.0
20260506084304 15 229 16.1 30.6 0.00 2.54 0.20 73 1003.9
20260506084204 15 227 16.1 30.6 0.00 2.54 0.20 73 1003.8
20260506084104 15 227 16.1 30.6 0.00 2.54 0.20 72 1003.9
20260506084004 15 225 14.5 30.6 0.00 2.54 0.20 73 1003.8
20260506083904 15 224 14.5 30.6 0.00 2.54 0.20 72 1003.8
20260506083704 15 222 16.1 35.4 0.00 2.54 0.20 74 1003.7
20260506083605 15 222 16.1 35.4 0.00 2.54 0.20 73 1003.9
20260506083404 15 219 16.1 35.4 0.00 2.54 0.20 75 1003.8
20260506083304 15 223 16.1 35.4 0.00 2.54 0.20 74 1003.6
20260506083204 15 227 16.1 35.4 0.00 2.54 0.20 76 1003.6
20260506083104 15 229 17.7 35.4 0.00 2.54 0.20 75 1003.6
20260506082904 15 232 19.3 35.4 0.00 2.54 0.20 75 1003.6
20260506082804 15 230 19.3 35.4 0.00 2.54 0.20 73 1003.8
20260506082704 15 230 19.3 33.8 0.00 2.54 0.20 74 1003.9
20260506082604 15 232 17.7 33.8 0.00 2.54 0.20 76 1003.8
20260506082504 15 236 19.3 37.0 0.00 2.54 0.20 76 1003.7
20260506082404 15 238 19.3 37.0 0.00 2.54 0.20 75 1003.6
20260506082305 15 233 20.9 37.0 0.00 2.54 0.20 75 1003.6
20260506082204 15 231 20.9 37.0 0.00 2.54 0.20 75 1003.5
20260506082104 15 231 20.9 37.0 0.00 2.54 0.20 75 1003.5
20260506082004 15 230 20.9 40.2 0.00 2.54 0.20 76 1003.6
20260506081904 15 228 20.9 40.2 0.00 2.54 0.20 75 1003.6
20260506081804 15 227 20.9 40.2 0.00 2.54 0.20 76 1003.7
20260506081604 15 224 20.9 40.2 0.00 2.54 0.20 76 1003.5
20260506081512 14 222 20.9 40.2 0.00 2.54 0.20 76 1003.5
20260506081504 14 221 20.9 40.2 0.00 2.54 0.20 76 1003.5
20260506081404 14 219 20.9 40.2 0.00 2.54 0.20 77 1003.5
20260506081211 14 219 17.7 40.2 0.00 2.54 0.20 78 1003.6
20260506081204 14 219 17.7 40.2 0.00 2.54 0.20 78 1003.6
20260506081104 14 216 17.7 40.2 0.00 2.54 0.20 79 1003.5
20260506081011 14 218 16.1 35.4 0.00 2.54 0.20 79 1003.3
20260506080904 14 218 16.1 35.4 0.00 2.54 0.20 78 1003.5
20260506080604 13 223 16.1 30.6 0.00 2.54 0.20 79 1003.3
20260506080504 13 221 16.1 35.4 0.00 2.54 0.20 79 1003.3
20260506080404 13 217 17.7 35.4 0.00 2.54 0.20 79 1003.6
20260506080204 13 218 19.3 35.4 0.00 2.54 0.20 77 1003.5
20260506080106 13 219 19.3 35.4 0.00 2.54 0.20 78 1003.3
20260506073504 13 239 14.5 37.0 0.00 2.54 0.20 80 1003.2
20260506073404 13 242 11.3 35.4 0.00 2.54 0.20 80 1003.3
20260506073304 13 240 11.3 30.6 0.00 2.54 0.20 80 1003.3
20260506073204 13 241 11.3 30.6 0.00 2.54 0.20 79 1003.3
20260506073104 13 243 9.7 30.6 0.00 2.54 0.20 80 1003.5
20260506073004 13 253 8.0 30.6 0.00 2.54 0.20 80 1003.5
20260506072904 13 261 8.0 22.5 0.00 2.54 0.20 80 1003.3
20260506072804 13 257 8.0 22.5 0.00 2.54 0.20 79 1003.3
20260506072704 13 261 6.4 22.5 0.00 2.54 0.20 81 1003.7
20260506072504 13 260 6.4 17.7 0.00 2.54 0.20 82 1003.6
20260506072404 13 257 6.4 17.7 0.00 2.54 0.20 81 1003.5
20260506072306 13 258 8.0 17.7 0.00 2.54 0.20 82 1003.7
20260506072204 13 257 8.0 33.8 0.00 2.54 0.20 82 1003.6
20260506072004 13 245 9.7 33.8 0.00 2.54 0.20 81 1003.6
20260506071904 13 239 9.7 33.8 0.00 2.54 0.20 82 1003.5
20260506071804 13 239 9.7 33.8 0.00 2.54 0.20 82 1003.6
20260506071704 13 235 9.7 33.8 0.00 2.54 0.20 82 1003.3
20260506071605 13 232 9.7 33.8 0.00 2.54 0.20 81 1003.6
20260506071512 13 229 9.7 33.8 0.00 2.54 0.20 82 1003.6
20260506071504 13 228 9.7 33.8 0.00 2.54 0.20 82 1003.6
20260506071404 13 226 9.7 33.8 0.00 2.54 0.20 81 1003.5
20260506071204 13 215 9.7 27.4 0.00 2.54 0.20 82 1003.6
20260506071104 13 214 8.0 25.7 0.00 2.54 0.20 82 1003.8
20260506071004 13 213 8.0 25.7 0.00 2.54 0.20 82 1003.8
20260506070905 13 213 8.0 25.7 0.00 2.54 0.20 83 1003.6
20260506070805 13 211 8.0 24.1 0.00 2.54 0.20 83 1003.8
20260506070704 13 221 8.0 24.1 0.00 2.54 0.20 83 1003.5
20260506070604 13 224 8.0 24.1 0.00 2.54 0.20 83 1003.7
20260506070504 13 223 6.4 17.7 0.00 2.54 0.20 83 1003.6
20260506070404 13 222 6.4 17.7 0.00 2.54 0.20 83 1003.7
20260506070305 13 222 6.4 17.7 0.00 2.54 0.20 83 1003.8
20260506070206 13 224 4.8 17.7 0.00 2.54 0.20 83 1003.7
20260506070105 13 225 4.8 17.7 0.00 2.54 0.20 83 1003.8
20260506062504 12 249 6.4 20.9 0.00 2.54 0.20 85 1003.7
20260506062306 12 256 4.8 20.9 0.00 2.54 0.20 85 1003.6
20260506062205 12 253 4.8 20.9 0.00 2.54 0.20 86 1003.7
20260506062104 12 248 4.8 20.9 0.00 2.54 0.20 85 1003.7
20260506062004 12 250 4.8 20.9 0.00 2.54 0.20 85 1003.5
20260506061912 12 245 3.2 20.9 0.00 2.54 0.20 86 1003.6
20260506061904 12 242 3.2 20.9 0.00 2.54 0.20 86 1003.6
20260506061804 12 234 3.2 16.1 0.00 2.54 0.20 86 1003.6
20260506061604 12 260 3.2 9.7 0.00 2.54 0.20 87 1003.7
20260506061504 12 256 3.2 9.7 0.00 2.54 0.20 87 1003.6
20260506061404 12 249 3.2 9.7 0.00 2.54 0.20 87 1003.6
20260506061312 12 235 3.2 12.9 0.00 2.54 0.20 87 1003.5
20260506061304 12 231 3.2 12.9 0.00 2.54 0.20 87 1003.5
20260506061205 12 225 3.2 14.5 0.00 2.54 0.20 87 1003.6
20260506061004 12 241 4.8 14.5 0.00 2.54 0.20 87 1003.8
20260506060904 12 250 6.4 14.5 0.00 2.54 0.20 86 1003.5
20260506060804 12 264 6.4 14.5 0.00 2.54 0.20 86 1003.6
20260506060704 12 265 6.4 14.5 0.00 2.54 0.20 86 1003.6
20260506060604 12 259 6.4 14.5 0.00 2.54 0.20 86 1003.5
20260506060504 12 258 6.4 14.5 0.00 2.54 0.20 86 1003.6
20260506060404 12 254 6.4 14.5 0.00 2.54 0.20 86 1003.6
20260506060312 12 254 6.4 14.5 0.00 2.54 0.20 86 1003.5
20260506060304 12 255 6.4 14.5 0.00 2.54 0.20 86 1003.5
20260506060204 12 262 6.4 14.5 0.00 2.54 0.20 86 1003.6
20260506060111 12 265 6.4 14.5 0.00 2.54 0.20 87 1003.5
20260506051404 11 249 8.0 14.5 0.00 2.54 0.20 90 1003.9
20260506051304 11 248 8.0 14.5 0.00 2.54 0.20 90 1003.8
20260506051204 11 248 8.0 14.5 0.00 2.54 0.20 90 1003.7
20260506051104 11 246 8.0 14.5 0.00 2.54 0.20 91 1003.7
20260506050904 11 245 8.0 14.5 0.00 2.54 0.20 91 1003.8
20260506050804 11 244 8.0 12.9 0.00 2.54 0.20 91 1003.7
20260506050604 11 243 8.0 12.9 0.00 2.54 0.20 91 1003.6
20260506050505 11 243 8.0 12.9 0.00 2.54 0.20 91 1003.7
20260506050405 11 240 8.0 12.9 0.00 2.54 0.20 91 1003.8
20260506050311 11 239 8.0 12.9 0.00 2.54 0.20 91 1003.8
20260506050204 11 235 8.0 12.9 0.00 2.54 0.20 91 1003.9
20260506044904 11 228 4.8 12.9 0.00 2.57 0.20 92 1003.7
20260506044804 11 224 4.8 11.3 0.00 2.57 0.20 92 1003.8
20260506044711 11 222 3.2 9.7 0.00 2.57 0.20 92 1003.7
20260506044704 11 221 3.2 9.7 0.00 2.57 0.20 92 1003.7
20260506044611 11 218 3.2 11.3 0.00 2.57 0.20 92 1003.8
20260506044604 11 217 3.2 11.3 0.00 2.57 0.20 92 1003.8
20260506044304 11 207 3.2 11.3 0.00 2.57 0.20 92 1003.7
20260506044204 11 206 3.2 11.3 0.00 2.57 0.20 92 1003.5
20260506044104 11 206 3.2 11.3 0.00 2.57 0.20 92 1003.9
20260506044004 11 205 3.2 11.3 0.00 2.57 0.20 92 1003.7
20260506043904 11 204 3.2 11.3 0.00 2.57 0.20 92 1003.7
20260506043804 11 205 3.2 11.3 0.00 2.57 0.20 92 1003.7
20260506043704 11 206 3.2 11.3 0.00 2.57 0.20 92 1003.7
20260506043612 11 208 3.2 6.4 0.00 2.57 0.20 92 1003.6
20260506043505 11 207 3.2 9.7 0.00 2.57 0.20 92 1003.5
20260506043412 11 206 4.8 9.7 0.00 2.57 0.20 92 1003.7
20260506043304 11 204 3.2 9.7 0.00 2.57 0.20 92 1003.7
20260506043104 11 202 4.8 11.3 0.00 2.57 0.20 92 1003.7
20260506043004 11 204 4.8 11.3 0.00 2.57 0.20 92 1003.6
20260506042905 11 205 4.8 11.3 0.00 2.57 0.20 92 1003.5
20260506042804 11 204 4.8 11.3 0.00 2.57 0.20 92 1003.6
20260506042704 11 202 4.8 11.3 0.00 2.57 0.20 92 1003.7
20260506042612 11 198 4.8 11.3 0.00 2.57 0.20 92 1003.6
20260506042604 11 197 3.2 11.3 0.00 2.57 0.20 92 1003.6
20260506042504 11 196 3.2 11.3 0.00 2.57 0.20 92 1003.3
20260506042305 11 202 3.2 11.3 0.00 2.57 0.20 92 1003.5
20260506042204 11 203 3.2 9.7 0.00 2.57 0.20 92 1003.3
20260506042104 11 206 1.6 6.4 0.00 2.57 0.20 92 1003.6
20260506042004 11 204 1.6 6.4 0.00 2.57 0.20 92 1003.6
20260506041904 11 203 1.6 4.8 0.00 2.57 0.20 92 1003.6
20260506041804 11 201 0.0 4.8 0.00 2.57 0.20 92 1003.5
20260506041704 11 204 0.0 3.2 0.00 2.57 0.20 92 1003.7
20260506041605 11 204 0.0 3.2 0.00 2.57 0.20 92 1003.6
20260506041404 11 196 0.0 3.2 0.00 2.57 0.20 92 1003.6
20260506041304 11 135 0.0 1.6 0.00 2.57 0.20 92 1003.3
20260506041204 11 135 0.0 1.6 0.00 2.57 0.20 92 1003.5
20260506041004 11 135 0.0 1.6 0.00 2.57 0.20 92 1003.5
20260506040904 11 135 0.0 1.6 0.00 2.57 0.20 92 1003.3
20260506040804 11 135 0.0 1.6 0.00 2.57 0.20 92 1003.5
20260506040704 11 135 0.0 1.6 0.00 2.57 0.20 92 1003.3
20260506040604 11 135 0.0 1.6 0.00 2.57 0.20 92 1003.5
20260506040505 11 0 0.0 0.0 0.00 2.57 0.18 92 1003.3
20260506040404 11 0 0.0 0.0 0.00 2.57 0.18 92 1003.5
20260506040311 11 0 0.0 0.0 0.00 2.57 0.18 92 1003.6
20260506040304 11 0 0.0 0.0 0.00 2.57 0.18 92 1003.6
20260506040204 11 0 0.0 0.0 0.00 2.57 0.18 92 1003.3
20260506040006 11 0 0.0 0.0 0.00 2.57 0.18 92 1003.1
20260506035904 11 0 0.0 0.0 0.00 2.57 0.18 92 1003.5
20260506035805 11 0 0.0 0.0 0.00 2.57 0.18 91 1003.5
20260506035704 11 0 0.0 0.0 0.00 2.57 0.18 91 1003.3
20260506035612 11 0 0.0 0.0 0.00 2.57 0.18 91 1003.3
20260506035605 11 0 0.0 0.0 0.00 2.57 0.18 91 1003.3
20260506035505 11 0 0.0 0.0 0.00 2.57 0.18 91 1003.6
20260506035306 11 0 0.0 0.0 0.00 2.57 0.18 91 1003.2
20260506035204 11 0 0.0 0.0 0.00 2.57 0.18 91 1003.5
20260506035105 11 0 0.0 0.0 0.00 2.57 0.18 91 1003.6
20260506035004 11 0 0.0 0.0 0.00 2.57 0.18 92 1003.5
20260506034912 11 0 0.0 0.0 0.00 2.57 0.18 92 1003.6
20260506034905 11 0 0.0 0.0 0.00 2.57 0.18 91 1003.6
20260506034804 11 0 0.0 0.0 0.00 2.57 0.18 91 1003.3
20260506034711 11 0 0.0 0.0 0.00 2.57 0.18 92 1003.6
20260506034604 11 0 0.0 0.0 0.00 2.57 0.18 91 1003.6
20260506034512 11 0 0.0 0.0 0.00 2.57 0.18 92 1003.5
20260506034404 11 0 0.0 0.0 0.00 2.57 0.18 91 1003.5
20260506034204 11 0 0.0 0.0 0.00 2.57 0.18 91 1003.6
20260506034104 11 0 0.0 0.0 0.00 2.57 0.18 91 1003.3
20260506034005 11 0 0.0 0.0 0.00 2.57 0.18 91 1003.6
20260506033804 11 0 0.0 0.0 0.00 2.57 0.18 91 1003.5
20260506033704 11 0 0.0 0.0 0.00 2.57 0.18 91 1003.3
20260506033604 11 0 0.0 0.0 0.00 2.57 0.18 91 1003.5
20260506033304 11 0 0.0 0.0 0.00 2.57 0.18 91 1003.6
20260506033204 11 0 0.0 0.0 0.00 2.57 0.18 91 1003.6
20260506033104 11 0 0.0 0.0 0.00 2.57 0.18 91 1003.5
20260506032904 11 0 0.0 0.0 0.00 2.57 0.18 91 1003.6
20260506032804 11 0 0.0 0.0 0.00 2.57 0.18 91 1003.6
20260506032705 11 0 0.0 0.0 0.00 2.57 0.18 91 1003.5
20260506032605 11 0 0.0 0.0 0.00 2.57 0.18 91 1003.5
20260506032505 11 0 0.0 0.0 0.00 2.57 0.18 91 1003.6
20260506032404 11 0 0.0 0.0 0.00 2.57 0.18 91 1003.6
20260506032306 11 0 0.0 0.0 0.00 2.57 0.18 91 1003.6
20260506032204 11 0 0.0 0.0 0.00 2.57 0.18 91 1003.6
20260506032105 11 0 0.0 0.0 0.00 2.57 0.18 91 1003.7
20260506032006 11 0 0.0 0.0 0.00 2.57 0.18 91 1003.8
20260506031905 11 0 0.0 0.0 0.00 2.59 0.18 91 1003.7
20260506031804 11 0 0.0 0.0 0.00 2.59 0.18 91 1003.6
20260506031705 11 0 0.0 0.0 0.00 2.59 0.18 91 1003.8
20260506031605 11 0 0.0 0.0 0.00 2.59 0.18 91 1003.6
20260506031504 11 0 0.0 0.0 0.00 2.59 0.18 91 1003.7
20260506031405 11 0 0.0 0.0 0.00 2.59 0.18 91 1003.7
20260506031305 11 0 0.0 0.0 0.00 2.59 0.18 91 1003.3
20260506031205 11 0 0.0 0.0 0.00 2.59 0.18 92 1003.6
20260506031104 11 0 0.0 0.0 0.00 2.59 0.18 91 1003.3
20260506030904 11 0 0.0 0.0 0.00 2.59 0.18 92 1003.6
20260506030804 11 0 0.0 0.0 0.00 2.59 0.18 92 1003.8
20260506030604 11 0 0.0 0.0 0.00 2.59 0.18 92 1003.6
20260506030506 11 0 0.0 0.0 0.00 2.59 0.18 92 1003.8
20260506030405 11 0 0.0 0.0 0.00 2.59 0.18 92 1003.7
20260506030304 11 0 0.0 0.0 0.00 2.59 0.18 92 1003.7
20260506030204 11 0 0.0 0.0 0.00 2.59 0.18 92 1003.7
20260506030105 11 0 0.0 0.0 0.00 2.59 0.18 92 1003.8
20260506025904 11 0 0.0 0.0 0.00 2.59 0.18 92 1003.8
20260506025804 11 0 0.0 0.0 0.00 2.59 0.18 92 1003.7
20260506025704 11 0 0.0 0.0 0.00 2.59 0.18 92 1003.7
20260506025604 11 0 0.0 0.0 0.00 2.59 0.18 92 1003.8
20260506025504 11 0 0.0 0.0 0.00 2.59 0.18 92 1003.9
20260506025305 11 0 0.0 0.0 0.00 2.59 0.18 92 1003.7
20260506025204 11 0 0.0 0.0 0.00 2.59 0.18 92 1003.8
20260506025104 11 0 0.0 0.0 0.00 2.59 0.18 92 1003.6
20260506025004 11 0 0.0 0.0 0.00 2.59 0.18 92 1003.9
20260506024904 11 0 0.0 0.0 0.00 2.59 0.18 92 1003.8
20260506024804 11 0 0.0 0.0 0.00 2.59 0.18 92 1003.7
20260506024704 11 0 0.0 0.0 0.00 2.59 0.18 92 1003.7
20260506024604 11 0 0.0 0.0 0.00 2.59 0.18 92 1003.8
20260506024504 11 0 0.0 0.0 0.00 2.59 0.18 92 1003.8
20260506024404 11 0 0.0 0.0 0.00 2.59 0.18 92 1003.9
20260506024304 11 0 0.0 0.0 0.00 2.59 0.18 92 1004.1
20260506024204 11 0 0.0 0.0 0.00 2.59 0.18 92 1003.9
20260506024104 11 0 0.0 0.0 0.00 2.59 0.18 92 1004.0
20260506024004 11 0 0.0 0.0 0.00 2.59 0.18 92 1003.9
20260506023904 11 0 0.0 0.0 0.00 2.59 0.18 92 1004.1
20260506023804 11 0 0.0 0.0 0.00 2.59 0.18 92 1004.0
20260506023704 11 0 0.0 0.0 0.00 2.59 0.18 92 1003.9
20260506023604 11 0 0.0 0.0 0.00 2.59 0.18 92 1003.9
20260506023504 11 0 0.0 0.0 0.00 2.59 0.18 92 1004.2
20260506023404 11 0 0.0 0.0 0.00 2.59 0.18 92 1004.0
20260506023304 11 0 0.0 0.0 0.00 2.59 0.18 92 1003.9
20260506023104 11 0 0.0 0.0 0.00 2.59 0.18 92 1004.1
20260506023005 11 0 0.0 0.0 0.00 2.62 0.18 92 1004.0
20260506022904 11 0 0.0 0.0 0.00 2.62 0.18 92 1004.2
20260506022804 11 0 0.0 0.0 0.00 2.62 0.18 92 1004.0
20260506022704 11 0 0.0 0.0 0.00 2.62 0.18 92 1004.2
20260506022604 11 0 0.0 0.0 0.00 2.62 0.18 92 1004.0
20260506022404 11 0 0.0 0.0 0.00 2.62 0.18 92 1003.9
20260506022306 11 0 0.0 0.0 0.00 2.62 0.18 92 1004.0
20260506022204 11 0 0.0 0.0 0.00 2.62 0.18 92 1004.0
20260506022104 11 0 0.0 0.0 0.00 2.62 0.18 92 1004.0
20260506022005 11 0 0.0 0.0 0.00 2.62 0.18 92 1004.1
20260506021904 11 0 0.0 0.0 0.00 2.62 0.18 92 1004.0
20260506021813 11 0 0.0 0.0 0.00 2.62 0.18 92 1004.0
20260506021704 11 0 0.0 0.0 0.00 2.62 0.18 92 1004.2
20260506021612 11 0 0.0 0.0 0.00 2.62 0.18 92 1004.0
20260506021504 11 0 0.0 0.0 0.00 2.62 0.18 92 1004.1
20260506021204 11 266 0.0 3.2 0.00 2.62 0.18 92 1004.1
20260506021104 11 260 0.0 3.2 0.00 2.62 0.18 92 1004.1
20260506021004 11 256 0.0 3.2 0.00 2.62 0.18 92 1004.0
20260506020813 11 250 1.6 3.2 0.00 2.62 0.18 92 1004.3
20260506020804 11 249 1.6 3.2 0.00 2.62 0.18 92 1004.3
20260506020704 11 243 1.6 4.8 0.00 2.62 0.18 92 1004.1
20260506020504 11 241 1.6 4.8 0.00 2.62 0.18 92 1004.2
20260506020404 11 239 1.6 4.8 0.00 2.62 0.18 92 1004.1
20260506020304 11 235 1.6 4.8 0.00 2.62 0.18 92 1004.1
20260506020204 11 230 1.6 4.8 0.00 2.62 0.18 92 1004.2
20260506020104 11 231 1.6 6.4 0.00 2.62 0.18 92 1004.3
20260506020005 11 232 1.6 6.4 0.00 2.62 0.18 92 1004.2
20260506015904 11 231 1.6 6.4 0.00 2.62 0.18 92 1004.1
20260506015804 11 233 1.6 6.4 0.00 2.62 0.18 92 1004.1
20260506015604 11 238 1.6 6.4 0.00 2.62 0.18 92 1004.0
20260506015505 11 239 1.6 6.4 0.00 2.62 0.18 92 1004.2
20260506015404 11 241 1.6 6.4 0.00 2.62 0.18 92 1004.0
20260506015311 11 244 1.6 6.4 0.00 2.62 0.18 92 1004.0
20260506015306 11 245 1.6 6.4 0.00 2.62 0.18 92 1004.0
20260506015204 11 250 1.6 6.4 0.00 2.62 0.18 92 1004.0
20260506015111 11 253 1.6 6.4 0.00 2.62 0.18 92 1004.2
20260506015004 11 250 0.0 6.4 0.00 2.62 0.18 92 1004.0
20260506014704 11 257 0.0 4.8 0.00 2.62 0.18 92 1004.1
20260506014604 11 256 0.0 4.8 0.00 2.62 0.18 92 1004.1
20260506014504 11 256 0.0 4.8 0.00 2.62 0.18 92 1004.1
20260506014404 11 256 0.0 4.8 0.00 2.62 0.18 92 1004.2
20260506014304 11 256 0.0 4.8 0.00 2.62 0.18 92 1004.1
20260506014204 11 256 0.0 4.8 0.00 2.62 0.18 92 1004.1
20260506014105 11 253 0.0 4.8 0.00 2.62 0.18 92 1004.3
20260506014004 11 0 0.0 0.0 0.00 2.62 0.18 92 1004.0
20260506013904 11 0 0.0 0.0 0.00 2.62 0.18 92 1004.1
20260506013804 11 0 0.0 0.0 0.00 2.62 0.18 92 1004.2
20260506013704 11 0 0.0 0.0 0.00 2.62 0.18 92 1004.2
20260506013404 11 0 0.0 0.0 0.00 2.62 0.18 92 1004.1
20260506013304 11 176 0.0 1.6 0.00 2.62 0.18 92 1004.2
20260506013204 11 176 0.0 1.6 0.00 2.62 0.18 92 1004.1
20260506013104 11 176 0.0 1.6 0.00 2.62 0.18 92 1004.4
20260506013004 11 188 0.0 1.6 0.00 2.62 0.18 92 1004.3
20260506012904 11 189 0.0 1.6 0.00 2.62 0.18 92 1004.3
20260506012804 11 189 0.0 1.6 0.00 2.62 0.18 92 1004.2
20260506012505 11 189 0.0 1.6 0.00 2.62 0.18 92 1004.4
20260506012404 11 189 0.0 1.6 0.00 2.62 0.18 92 1004.4
20260506012307 11 192 0.0 1.6 0.00 2.62 0.18 92 1004.3
20260506012204 11 199 0.0 1.6 0.00 2.62 0.18 92 1004.2
20260506012106 11 199 0.0 1.6 0.00 2.62 0.18 92 1004.4
20260506012005 11 197 0.0 1.6 0.00 2.62 0.18 92 1004.2
20260506011904 11 0 0.0 0.0 0.00 2.62 0.18 92 1004.3
20260506011808 11 0 0.0 0.0 0.00 2.62 0.18 92 1004.3
20260506011605 11 0 0.0 0.0 0.00 2.62 0.18 92 1004.3
20260506011506 11 0 0.0 0.0 0.00 2.62 0.18 92 1004.3
20260506011405 11 0 0.0 0.0 0.00 2.62 0.18 92 1004.4
20260506011306 11 0 0.0 0.0 0.00 2.62 0.18 92 1004.5
20260506011205 11 0 0.0 0.0 0.00 2.62 0.18 92 1004.3
20260506011107 11 0 0.0 0.0 0.00 2.62 0.18 92 1004.5
20260506011010 11 0 0.0 0.0 0.00 2.62 0.18 92 1004.4
20260506010912 11 0 0.0 0.0 0.00 2.62 0.18 92 1004.4
20260506010805 11 0 0.0 0.0 0.00 2.62 0.18 92 1004.4
20260506010605 11 0 0.0 0.0 0.00 2.62 0.18 92 1004.2
20260506010505 11 0 0.0 0.0 0.00 2.62 0.18 92 1004.3
20260506010405 11 0 0.0 0.0 0.00 2.62 0.18 92 1004.3
20260506010305 11 0 0.0 0.0 0.00 2.62 0.18 92 1004.4
20260506010204 11 0 0.0 0.0 0.00 2.62 0.18 92 1004.6
20260506010105 11 0 0.0 0.0 0.00 2.62 0.18 92 1004.3
20260506005904 11 0 0.0 0.0 0.00 2.62 0.18 92 1004.4
20260506005804 11 0 0.0 0.0 0.00 2.62 0.18 92 1004.5
20260506005704 11 0 0.0 0.0 0.00 2.62 0.18 92 1004.3
20260506005604 11 0 0.0 0.0 0.00 2.62 0.18 92 1004.4
20260506005504 11 0 0.0 0.0 0.00 2.62 0.18 92 1004.4
20260506005404 11 0 0.0 0.0 0.00 2.62 0.18 92 1004.3
20260506005204 11 0 0.0 0.0 0.00 2.62 0.18 92 1004.4
20260506005104 11 0 0.0 0.0 0.00 2.62 0.18 92 1004.2
20260506005004 11 0 0.0 0.0 0.00 2.62 0.18 92 1004.3
20260506004904 11 0 0.0 0.0 0.00 2.62 0.18 92 1004.3
20260506004804 11 0 0.0 0.0 0.00 2.62 0.18 92 1004.3
20260506004604 11 297 0.0 3.2 0.00 2.62 0.18 92 1004.3
20260506004504 11 309 0.0 4.8 0.00 2.62 0.18 92 1004.4
20260506004404 11 308 0.0 4.8 0.00 2.62 0.18 92 1004.3
20260506004304 11 303 1.6 4.8 0.00 2.62 0.18 92 1004.3
20260506004204 11 300 1.6 4.8 0.00 2.62 0.18 92 1004.4
20260506004104 11 297 1.6 4.8 0.00 2.62 0.18 92 1004.4
20260506004004 11 296 1.6 4.8 0.00 2.62 0.18 92 1004.4
20260506003804 11 282 1.6 4.8 0.00 2.62 0.18 92 1004.5
20260506003704 11 278 1.6 4.8 0.00 2.62 0.18 92 1004.4
20260506003504 11 266 1.6 4.8 0.00 2.62 0.18 92 1004.3
20260506003404 11 265 1.6 4.8 0.00 2.62 0.18 92 1004.5
20260506003304 11 264 1.6 4.8 0.00 2.62 0.18 92 1004.4
20260506003211 11 263 1.6 4.8 0.00 2.59 0.18 92 1004.5
20260506003204 11 262 1.6 4.8 0.00 2.59 0.18 92 1004.5
20260506003104 11 263 1.6 4.8 0.00 2.59 0.18 92 1004.5
20260506002904 11 261 1.6 4.8 0.00 2.59 0.18 92 1004.4
20260506002804 11 267 1.6 4.8 0.00 2.59 0.18 92 1004.2
20260506002704 11 265 1.6 4.8 0.00 2.59 0.18 92 1004.4
20260506002611 11 264 3.2 4.8 0.00 2.59 0.18 92 1004.3
20260506002604 11 265 3.2 4.8 0.00 2.59 0.18 92 1004.3
20260506002504 11 263 3.2 9.7 0.00 2.59 0.18 92 1004.3
20260506002306 11 258 3.2 11.3 0.00 2.59 0.18 92 1004.4
20260506002204 11 255 4.8 11.3 0.00 2.59 0.18 92 1004.4
20260506002104 11 251 4.8 11.3 0.00 2.59 0.18 92 1004.3
20260506001904 11 246 4.8 12.9 0.00 2.59 0.18 92 1004.3
20260506001804 11 246 4.8 12.9 0.00 2.59 0.18 92 1004.4
20260506001704 11 248 4.8 12.9 0.00 2.59 0.18 92 1004.6
20260506001604 11 248 4.8 12.9 0.00 2.59 0.18 92 1004.4
20260506001511 11 250 4.8 12.9 0.00 2.59 0.18 92 1004.6
20260506001404 11 251 4.8 12.9 0.00 2.59 0.18 92 1004.3
20260506001211 11 254 3.2 12.9 0.03 2.59 0.18 92 1004.4
20260506001104 11 258 3.2 12.9 0.03 2.59 0.18 92 1004.5
20260506000904 11 281 1.6 9.7 0.03 2.59 0.18 92 1004.4
20260506000804 11 288 1.6 4.8 0.03 2.59 0.18 92 1004.5
20260506000704 11 293 1.6 4.8 0.03 2.59 0.18 92 1004.5
20260506000604 11 298 1.6 4.8 0.03 2.59 0.18 92 1004.4
20260506000504 11 300 1.6 4.8 0.03 2.59 0.18 92 1004.3
20260506000404 11 300 1.6 4.8 0.03 2.59 0.18 92 1004.5
20260506000304 11 304 1.6 4.8 0.03 2.59 0.18 92 1004.6
20260506000205 11 306 1.6 4.8 0.03 2.59 0.18 92 1004.5
20260506000104 11 306 1.6 4.8 0.03 2.59 0.18 92 1004.4
20260505235904 11 309 1.6 6.4 0.03 2.59 0.18 92 1004.6
20260505235804 11 311 1.6 6.4 0.03 2.59 0.18 92 1004.6
20260505235604 11 312 1.6 6.4 0.03 2.59 0.18 92 1004.7
20260505235504 11 314 1.6 6.4 0.03 2.59 0.18 92 1004.7
20260505235404 11 315 1.6 6.4 0.03 2.59 0.18 92 1004.7
20260505235305 11 314 1.6 6.4 0.03 2.59 0.18 92 1004.7
20260505235204 11 311 0.0 6.4 0.03 2.59 0.18 92 1004.6
20260505235104 11 312 0.0 6.4 0.03 2.59 0.18 92 1004.8
20260505235004 11 0 0.0 0.0 0.03 2.59 0.18 92 1004.7
20260505234904 11 0 0.0 0.0 0.05 2.59 0.18 92 1004.6
20260505234804 11 0 0.0 0.0 0.05 2.59 0.18 92 1004.6
20260505234704 11 0 0.0 0.0 0.05 2.59 0.18 92 1004.7
20260505234604 11 0 0.0 0.0 0.05 2.59 0.18 92 1004.5
20260505234504 11 0 0.0 0.0 0.05 2.59 0.18 92 1004.6
20260505234404 11 0 0.0 0.0 0.05 2.59 0.18 92 1004.8
20260505234311 11 0 0.0 0.0 0.05 2.59 0.18 92 1004.7
20260505234204 11 0 0.0 0.0 0.05 2.59 0.18 92 1004.8
20260505234004 11 354 0.0 3.2 0.08 2.59 0.18 92 1005.0
20260505233904 11 354 0.0 3.2 0.08 2.59 0.18 92 1004.7
20260505233804 11 354 0.0 3.2 0.08 2.59 0.18 92 1004.9
20260505233704 11 354 0.0 3.2 0.08 2.59 0.18 92 1004.8
20260505233604 11 354 0.0 3.2 0.08 2.59 0.18 92 1004.6
20260505233504 11 354 0.0 3.2 0.08 2.59 0.18 92 1004.9
20260505233404 11 354 0.0 3.2 0.08 2.59 0.18 92 1004.7
20260505233304 11 354 0.0 3.2 0.10 2.59 0.18 92 1004.8
20260505233204 11 354 0.0 3.2 0.10 2.59 0.18 92 1004.8
20260505233104 11 330 0.0 3.2 0.10 2.59 0.18 92 1004.9
20260505233004 11 304 0.0 3.2 0.10 2.59 0.18 92 1004.7
20260505232904 11 303 0.0 3.2 0.10 2.59 0.18 92 1004.8
20260505232804 11 304 0.0 3.2 0.10 2.59 0.18 92 1004.9
20260505232704 11 304 0.0 3.2 0.10 2.59 0.18 92 1004.8
20260505232611 11 306 0.0 3.2 0.10 2.59 0.18 92 1004.7
20260505232504 11 304 1.6 4.8 0.10 2.59 0.18 92 1004.8
20260505232305 11 309 1.6 4.8 0.10 2.59 0.18 92 1004.8
20260505232204 11 310 1.6 4.8 0.10 2.59 0.18 92 1004.8
20260505232104 11 311 1.6 4.8 0.10 2.59 0.18 92 1004.8
20260505232005 11 310 1.6 4.8 0.10 2.59 0.18 92 1004.9
20260505231904 11 308 1.6 6.4 0.10 2.59 0.18 92 1004.9
20260505231804 11 307 1.6 6.4 0.10 2.59 0.18 92 1004.7
20260505231704 11 305 3.2 6.4 0.10 2.59 0.18 92 1004.9
20260505231604 11 300 3.2 6.4 0.10 2.59 0.18 92 1004.8
20260505231404 11 291 3.2 6.4 0.10 2.59 0.18 92 1004.7
20260505231304 11 288 3.2 9.7 0.13 2.59 0.18 92 1004.7
20260505231104 11 278 3.2 9.7 0.10 2.59 0.15 92 1004.8
20260505231004 11 277 3.2 9.7 0.13 2.59 0.15 92 1004.9
20260505230904 11 275 3.2 9.7 0.13 2.59 0.15 92 1004.9
20260505230704 11 282 3.2 9.7 0.13 2.57 0.15 92 1004.9
20260505230604 11 285 3.2 9.7 0.13 2.57 0.15 92 1005.0
20260505230504 11 291 3.2 9.7 0.13 2.57 0.15 92 1005.0
20260505230404 11 293 3.2 9.7 0.13 2.57 0.15 92 1005.0
20260505230304 11 295 3.2 9.7 0.13 2.57 0.15 92 1004.9
20260505230204 11 300 3.2 9.7 0.15 2.57 0.15 92 1005.0
20260505230104 11 304 3.2 9.7 0.15 2.57 0.15 92 1004.9
20260505230004 11 308 4.8 9.7 0.15 2.57 0.15 92 1005.2
20260505225904 11 311 4.8 9.7 0.15 2.57 0.15 92 1005.0
20260505225804 11 313 4.8 9.7 0.15 2.57 0.15 92 1004.9
20260505225704 11 314 4.8 9.7 0.15 2.57 0.15 92 1004.6
20260505225604 11 316 4.8 9.7 0.18 2.57 0.15 92 1004.8
20260505225504 11 319 4.8 9.7 0.18 2.57 0.15 92 1004.9
20260505225306 11 323 4.8 9.7 0.18 2.57 0.15 92 1005.0
20260505225204 11 326 6.4 9.7 0.20 2.57 0.15 92 1004.8
20260505225104 11 326 6.4 9.7 0.20 2.57 0.15 92 1005.0
20260505225004 11 327 6.4 9.7 0.23 2.57 0.15 92 1004.8
20260505224904 11 328 6.4 9.7 0.23 2.57 0.15 92 1005.0
20260505224804 11 329 6.4 9.7 0.23 2.57 0.15 92 1004.9
20260505224704 11 328 6.4 9.7 0.23 2.57 0.15 92 1005.0
20260505224604 11 327 6.4 9.7 0.25 2.57 0.15 92 1005.0
20260505224504 11 325 6.4 9.7 0.23 2.54 0.13 92 1004.9
20260505224404 11 324 6.4 9.7 0.25 2.54 0.13 92 1004.8
20260505224304 11 325 6.4 11.3 0.25 2.54 0.13 92 1004.9
20260505224204 11 324 6.4 11.3 0.25 2.54 0.13 92 1004.9
20260505224105 11 325 6.4 11.3 0.25 2.54 0.13 92 1004.9
20260505224004 11 326 6.4 11.3 0.25 2.54 0.10 92 1004.8
20260505223904 11 326 6.4 11.3 0.28 2.54 0.10 92 1004.8
20260505223804 11 326 4.8 11.3 0.28 2.54 0.10 92 1005.0
20260505223605 11 327 4.8 11.3 0.30 2.51 0.10 92 1004.9
20260505223505 11 327 4.8 11.3 0.33 2.51 0.10 92 1004.9
20260505223404 11 327 4.8 11.3 0.33 2.51 0.10 92 1005.0
20260505223304 11 326 4.8 11.3 0.38 2.51 0.10 92 1004.7
20260505223204 11 325 4.8 11.3 0.38 2.51 0.10 92 1004.9
20260505223104 11 321 4.8 6.4 0.41 2.51 0.10 92 1004.9
20260505223004 11 319 4.8 6.4 0.41 2.49 0.08 92 1005.0
20260505222904 11 318 4.8 6.4 0.43 2.49 0.08 92 1005.0
20260505222804 11 315 4.8 6.4 0.46 2.49 0.08 92 1004.9
20260505222704 11 313 4.8 6.4 0.46 2.49 0.08 92 1005.0
20260505222604 11 310 4.8 6.4 0.48 2.51 0.08 92 1005.1
20260505222504 11 308 4.8 6.4 0.51 2.51 0.08 92 1005.1
20260505222411 11 306 4.8 6.4 0.51 2.51 0.08 92 1004.9
20260505222404 11 305 4.8 6.4 0.51 2.51 0.08 92 1004.9
20260505222306 11 303 3.2 6.4 0.51 2.49 0.08 92 1005.0
20260505222104 11 302 3.2 6.4 0.53 2.49 0.08 92 1005.1
20260505222004 11 301 3.2 6.4 0.56 2.49 0.08 92 1005.1
20260505221804 11 299 3.2 6.4 0.56 2.49 0.05 92 1004.9
20260505221705 11 301 3.2 4.8 0.56 2.49 0.05 92 1005.2
20260505221604 11 304 3.2 4.8 0.56 2.49 0.05 92 1004.9
20260505221404 11 312 3.2 4.8 0.61 2.49 0.05 91 1005.0
20260505221311 11 316 3.2 4.8 0.61 2.49 0.05 91 1005.1
20260505221304 11 317 3.2 4.8 0.61 2.49 0.05 92 1005.1
20260505221204 11 323 1.6 4.8 0.64 2.49 0.05 92 1005.3
20260505221004 11 340 1.6 4.8 0.66 2.46 0.05 91 1005.1
20260505220904 11 351 3.2 6.4 0.66 2.46 0.05 92 1005.3
20260505220804 11 1 3.2 6.4 0.69 2.46 0.05 92 1005.2
20260505220704 11 7 3.2 6.4 0.71 2.46 0.03 91 1005.3
20260505220604 11 10 3.2 6.4 0.71 2.46 0.03 91 1005.2
20260505220504 11 6 3.2 6.4 0.71 2.44 0.03 91 1005.2
20260505220411 11 4 3.2 6.4 0.71 2.44 0.03 91 1005.2
20260505220404 11 4 4.8 6.4 0.71 2.44 0.03 91 1005.2
20260505220313 11 2 4.8 6.4 0.71 2.44 0.03 92 1005.0
20260505220229 11 359 4.8 6.4 0.74 2.44 0.00 92 1005.2
20260505215904 11 347 4.8 6.4 0.74 2.41 2.41 91 1005.0
20260505215804 11 340 4.8 6.4 0.76 2.41 2.41 91 1005.4
20260505215704 11 335 4.8 6.4 0.79 2.41 2.41 91 1005.2
20260505215604 11 333 3.2 6.4 0.79 2.41 2.41 91 1005.3
20260505215504 11 329 3.2 6.4 0.79 2.39 2.39 91 1005.3
20260505215405 11 324 3.2 6.4 0.79 2.39 2.39 91 1005.3
20260505215305 11 320 3.2 6.4 0.81 2.39 2.39 91 1005.2
20260505215204 11 318 3.2 4.8 0.81 2.39 2.39 91 1005.0
20260505215104 11 318 3.2 4.8 0.84 2.39 2.39 91 1005.4
20260505215005 11 316 3.2 4.8 0.81 2.36 2.36 91 1005.3
20260505214904 11 319 3.2 4.8 0.84 2.36 2.36 91 1005.4
20260505214804 11 323 3.2 4.8 0.84 2.34 2.34 91 1005.4
20260505214704 11 325 3.2 4.8 0.84 2.34 2.34 91 1005.2
20260505214505 11 337 3.2 6.4 0.86 2.31 2.31 91 1005.2
20260505214404 11 348 3.2 6.4 0.86 2.31 2.31 91 1005.2
20260505214305 11 360 4.8 11.3 0.89 2.31 2.31 91 1005.2
20260505214204 11 8 4.8 11.3 0.89 2.31 2.31 91 1005.3
20260505214104 11 13 4.8 11.3 0.89 2.29 2.29 91 1005.2
20260505214004 11 19 4.8 11.3 0.89 2.29 2.29 91 1005.2
20260505213911 11 20 6.4 11.3 0.89 2.26 2.26 91 1005.3
20260505213904 11 21 6.4 11.3 0.89 2.26 2.26 91 1005.3
20260505213804 11 23 6.4 11.3 0.86 2.26 2.26 91 1005.3
20260505213604 12 24 6.4 11.3 0.86 2.24 2.24 91 1005.5
20260505213504 12 23 6.4 11.3 0.86 2.21 2.21 91 1005.3
20260505213404 12 22 6.4 11.3 0.84 2.18 2.18 91 1005.4
20260505213304 12 21 6.4 11.3 0.81 2.16 2.16 91 1005.4
20260505213104 12 20 6.4 11.3 0.81 2.11 2.11 91 1005.4
20260505213004 12 13 6.4 11.3 0.81 2.11 2.11 91 1005.3
20260505212904 12 9 6.4 11.3 0.79 2.08 2.08 91 1005.5
20260505212805 12 7 6.4 11.3 0.76 2.06 2.06 90 1005.6
20260505212704 12 8 6.4 11.3 0.79 2.06 2.06 90 1005.5
20260505212404 12 7 4.8 12.9 0.76 1.98 1.98 90 1005.4
20260505212306 12 360 4.8 12.9 0.76 1.98 1.98 90 1005.4
20260505212204 12 348 4.8 12.9 0.76 1.98 1.98 90 1005.5
20260505212104 12 336 3.2 12.9 0.79 1.96 1.96 90 1005.5
20260505212011 12 341 3.2 12.9 0.76 1.93 1.93 90 1005.5
20260505212005 12 343 3.2 12.9 0.76 1.93 1.93 90 1005.5
20260505211904 12 328 3.2 12.9 0.79 1.93 1.93 90 1005.5
20260505211704 12 221 1.6 12.9 0.84 1.93 1.93 90 1005.5
20260505211604 12 218 1.6 9.7 0.84 1.93 1.93 90 1005.3
20260505211404 12 214 1.6 9.7 0.86 1.88 1.88 90 1005.4
20260505211306 12 204 1.6 4.8 0.86 1.88 1.88 90 1005.5
20260505211205 12 198 0.0 4.8 0.84 1.83 1.83 90 1005.6
20260505211105 12 194 0.0 4.8 0.84 1.83 1.83 90 1005.4
20260505211005 12 186 0.0 4.8 0.84 1.80 1.80 90 1005.4
20260505210904 12 48 0.0 1.6 0.84 1.80 1.80 90 1005.3
20260505210805 12 48 0.0 1.6 0.89 1.78 1.78 90 1005.4
20260505210704 12 48 0.0 1.6 0.86 1.75 1.75 90 1005.5
20260505210604 12 48 0.0 1.6 0.86 1.75 1.75 90 1005.5
20260505210505 12 48 0.0 1.6 0.86 1.75 1.75 90 1005.2
20260505210404 12 48 0.0 1.6 0.89 1.73 1.73 90 1005.3
20260505210305 12 48 0.0 1.6 0.91 1.73 1.73 90 1005.2
20260505210204 12 48 0.0 1.6 0.91 1.70 1.70 90 1005.3
20260505210006 12 48 0.0 1.6 0.91 1.70 1.70 90 1005.5
20260505205905 12 0 0.0 0.0 0.91 1.68 1.68 90 1005.3
20260505205804 12 0 0.0 0.0 0.89 1.65 1.65 90 1005.6
20260505205704 12 12 0.0 1.6 0.89 1.65 1.65 90 1005.4
20260505205604 12 13 0.0 3.2 0.89 1.63 1.63 90 1005.2
20260505205505 12 17 0.0 3.2 0.89 1.60 1.60 90 1005.4
20260505205305 12 34 1.6 6.4 0.89 1.57 1.57 90 1005.3
20260505205204 12 34 1.6 6.4 0.89 1.55 1.55 90 1005.4
20260505205104 12 34 1.6 6.4 0.89 1.55 1.55 90 1005.4
20260505205007 12 34 1.6 6.4 0.89 1.55 1.55 89 1005.4
20260505204904 12 36 1.6 6.4 0.89 1.52 1.55 89 1005.4
20260505204811 12 39 1.6 6.4 0.89 1.50 1.52 89 1005.4
20260505204805 12 39 1.6 6.4 0.89 1.50 1.50 89 1005.4
20260505204705 12 42 1.6 6.4 0.89 1.50 1.50 89 1005.5
20260505204511 12 42 1.6 6.4 0.86 1.45 1.47 90 1005.4
20260505204404 12 43 1.6 6.4 0.86 1.45 1.45 89 1005.4
20260505204312 13 44 1.6 4.8 0.84 1.42 1.42 89 1005.4
20260505204204 13 42 1.6 4.8 0.84 1.42 1.42 89 1005.3
20260505204112 13 39 3.2 4.8 0.84 1.42 1.42 89 1005.5
20260505204011 13 37 3.2 4.8 0.84 1.40 1.40 89 1005.3
20260505204007 13 36 3.2 4.8 0.84 1.40 1.40 89 1005.3
20260505203914 13 34 3.2 6.4 0.84 1.40 1.40 89 1005.1
20260505203604 13 29 3.2 6.4 0.84 1.37 1.37 89 1005.3
20260505203505 13 29 3.2 6.4 0.84 1.35 1.35 89 1005.4
20260505203404 13 27 3.2 6.4 0.84 1.35 1.35 89 1005.4
20260505203304 13 25 3.2 6.4 0.84 1.32 1.32 89 1005.3
20260505203204 13 24 3.2 6.4 0.84 1.32 1.32 89 1005.5
20260505203104 13 26 1.6 6.4 0.84 1.32 1.32 89 1005.1
20260505203005 13 27 1.6 6.4 0.84 1.30 1.30 89 1005.1
20260505202904 13 29 1.6 6.4 0.84 1.30 1.30 89 1005.3
20260505202804 13 24 1.6 6.4 0.84 1.30 1.30 89 1005.2
20260505202704 13 360 0.0 4.8 0.84 1.27 1.27 89 1005.2
20260505202606 13 327 0.0 3.2 0.84 1.27 1.27 89 1005.2
20260505202404 13 0 0.0 0.0 0.84 1.24 1.24 89 1005.1
20260505202306 13 0 0.0 0.0 0.84 1.22 1.22 89 1005.2
20260505202204 13 0 0.0 0.0 0.81 1.19 1.22 89 1005.2
20260505202104 13 0 0.0 0.0 0.81 1.17 1.17 89 1005.2
20260505202005 13 0 0.0 0.0 0.79 1.17 1.17 89 1005.5
20260505201904 13 0 0.0 0.0 0.79 1.14 1.14 89 1005.3
20260505201804 13 0 0.0 0.0 0.76 1.12 1.12 89 1005.2
20260505201712 13 0 0.0 0.0 0.74 1.09 1.12 89 1005.3
20260505201704 13 0 0.0 0.0 0.74 1.09 1.09 89 1005.3
20260505201605 13 0 0.0 0.0 0.76 1.09 1.09 89 1005.2
20260505201404 13 0 0.0 0.0 0.71 1.04 1.04 89 1005.4
20260505201304 13 0 0.0 0.0 0.71 1.02 1.02 89 1005.5
20260505201104 13 0 0.0 0.0 0.69 0.99 0.99 89 1005.5
20260505201004 13 0 0.0 0.0 0.66 0.97 0.97 89 1005.3
20260505200911 13 0 0.0 0.0 0.66 0.94 0.94 89 1005.3
20260505200604 13 0 0.0 0.0 0.61 0.89 0.89 88 1005.1
20260505200504 13 0 0.0 0.0 0.61 0.86 0.86 88 1005.2
20260505200404 13 0 0.0 0.0 0.56 0.84 0.84 88 1005.4
20260505200304 13 0 0.0 0.0 0.56 0.81 0.81 88 1005.3
20260505200204 13 0 0.0 0.0 0.56 0.79 0.79 88 1005.3
20260505200104 13 0 0.0 0.0 0.53 0.79 0.79 88 1005.4
20260505195904 13 0 0.0 0.0 0.51 0.76 0.76 88 1005.2
20260505195804 13 0 0.0 0.0 0.53 0.76 0.76 88 1005.3
20260505195704 13 0 0.0 0.0 0.51 0.76 0.76 88 1005.3
20260505195613 13 0 0.0 0.0 0.51 0.74 0.74 88 1005.3
20260505195504 13 0 0.0 0.0 0.48 0.71 0.71 88 1005.2
20260505195204 13 0 0.0 0.0 0.48 0.69 0.69 88 1005.3
20260505195104 13 0 0.0 0.0 0.46 0.66 0.66 88 1005.3
20260505195005 13 0 0.0 0.0 0.46 0.66 0.66 88 1005.4
20260505194904 13 0 0.0 0.0 0.43 0.64 0.64 88 1005.2
20260505194804 13 0 0.0 0.0 0.43 0.64 0.64 88 1005.2
20260505194705 13 0 0.0 0.0 0.43 0.61 0.61 88 1005.4
20260505194604 13 0 0.0 0.0 0.41 0.61 0.61 88 1005.3
20260505194504 13 0 0.0 0.0 0.41 0.58 0.58 88 1005.3
20260505194404 13 0 0.0 0.0 0.41 0.58 0.58 88 1005.3
20260505194204 13 0 0.0 0.0 0.38 0.56 0.56 88 1005.2
20260505194104 13 0 0.0 0.0 0.38 0.56 0.56 87 1005.1
20260505194006 13 0 0.0 0.0 0.38 0.56 0.56 88 1005.1
20260505193904 13 0 0.0 0.0 0.38 0.56 0.56 87 1005.3
20260505193804 13 0 0.0 0.0 0.38 0.56 0.56 87 1005.2
20260505193712 13 0 0.0 0.0 0.36 0.53 0.53 87 1005.3
20260505193604 13 0 0.0 0.0 0.33 0.51 0.51 87 1005.3
20260505193411 13 0 0.0 0.0 0.33 0.51 0.51 87 1005.3
20260505193304 13 0 0.0 0.0 0.30 0.48 0.48 87 1005.2
20260505193104 13 0 0.0 0.0 0.28 0.48 0.48 87 1005.2
20260505193004 13 0 0.0 0.0 0.28 0.48 0.48 87 1005.3
20260505192904 13 0 0.0 0.0 0.28 0.46 0.46 87 1005.2
20260505192804 13 0 0.0 0.0 0.25 0.43 0.43 87 1005.3
20260505192705 13 0 0.0 0.0 0.25 0.43 0.43 87 1005.4
20260505192605 14 0 0.0 0.0 0.23 0.43 0.43 87 1005.4
20260505192504 14 0 0.0 0.0 0.23 0.41 0.41 87 1005.4
20260505192404 14 0 0.0 0.0 0.20 0.38 0.41 87 1005.5
20260505192204 14 0 0.0 0.0 0.20 0.38 0.38 87 1005.4
20260505192105 14 0 0.0 0.0 0.20 0.38 0.38 87 1005.5
20260505192004 14 0 0.0 0.0 0.20 0.38 0.38 87 1005.3
20260505191905 14 0 0.0 0.0 0.18 0.36 0.36 87 1005.3
20260505191804 14 0 0.0 0.0 0.18 0.36 0.36 87 1005.5
20260505191704 14 0 0.0 0.0 0.18 0.36 0.36 87 1005.4
20260505191604 14 0 0.0 0.0 0.18 0.33 0.36 87 1005.4
20260505191504 14 0 0.0 0.0 0.18 0.33 0.33 87 1005.4
20260505191405 14 0 0.0 0.0 0.15 0.33 0.33 87 1005.4
20260505191304 14 0 0.0 0.0 0.15 0.30 0.30 87 1005.6
20260505191204 14 0 0.0 0.0 0.15 0.30 0.30 87 1005.6
20260505191104 14 0 0.0 0.0 0.15 0.30 0.30 87 1005.5
20260505191005 14 0 0.0 0.0 0.15 0.30 0.30 87 1005.4
20260505190904 14 0 0.0 0.0 0.15 0.28 0.28 87 1005.6
20260505190804 14 0 0.0 0.0 0.13 0.28 0.28 87 1005.4
20260505190704 14 0 0.0 0.0 0.13 0.28 0.28 87 1005.5
20260505190604 14 0 0.0 0.0 0.13 0.28 0.28 87 1005.5
20260505190505 14 0 0.0 0.0 0.13 0.28 0.28 87 1005.6
20260505190405 14 0 0.0 0.0 0.13 0.25 0.25 87 1005.4
20260505190204 14 0 0.0 0.0 0.10 0.25 0.25 86 1005.6
20260505190105 14 0 0.0 0.0 0.10 0.25 0.25 86 1005.5
20260505190005 14 0 0.0 0.0 0.10 0.23 0.23 86 1005.6
20260505185804 14 0 0.0 0.0 0.10 0.23 0.23 86 1005.5
20260505185704 14 0 0.0 0.0 0.10 0.23 0.23 86 1005.4
20260505185611 14 0 0.0 0.0 0.10 0.23 0.23 86 1005.3
20260505185505 14 0 0.0 0.0 0.10 0.23 0.23 86 1005.2
20260505185305 14 0 0.0 0.0 0.08 0.20 0.20 86 1005.3
20260505185204 14 0 0.0 0.0 0.08 0.20 0.20 86 1005.4
20260505185104 14 0 0.0 0.0 0.08 0.20 0.20 86 1005.3
20260505185011 14 0 0.0 0.0 0.08 0.20 0.20 86 1005.3
20260505184905 14 0 0.0 0.0 0.08 0.20 0.20 86 1005.2
20260505184812 14 0 0.0 0.0 0.08 0.18 0.18 86 1005.3
20260505184705 14 0 0.0 0.0 0.08 0.18 0.18 86 1005.3
20260505184504 14 0 0.0 0.0 0.08 0.18 0.18 86 1005.4
20260505184404 14 0 0.0 0.0 0.08 0.18 0.18 86 1005.2
20260505184304 14 0 0.0 0.0 0.08 0.18 0.18 86 1005.0
20260505184204 14 0 0.0 0.0 0.08 0.18 0.18 86 1005.2
20260505184104 14 0 0.0 0.0 0.08 0.18 0.18 86 1005.2
20260505184005 14 0 0.0 0.0 0.08 0.18 0.18 86 1005.1
20260505183904 14 0 0.0 0.0 0.08 0.18 0.18 86 1005.3
20260505183804 14 0 0.0 0.0 0.08 0.18 0.18 86 1005.2
20260505183704 14 0 0.0 0.0 0.08 0.18 0.18 86 1005.2
20260505183604 14 0 0.0 0.0 0.08 0.18 0.18 86 1005.3
20260505183505 14 0 0.0 0.0 0.08 0.18 0.18 86 1005.2
20260505183404 14 0 0.0 0.0 0.08 0.18 0.18 86 1005.3
20260505183305 14 0 0.0 0.0 0.08 0.18 0.18 86 1005.4
20260505183205 14 0 0.0 0.0 0.08 0.18 0.18 86 1005.2
20260505183104 14 0 0.0 0.0 0.08 0.18 0.18 86 1005.2
20260505182804 14 0 0.0 0.0 0.08 0.18 0.18 86 1005.2
20260505182704 14 0 0.0 0.0 0.08 0.18 0.18 86 1005.3
20260505182604 14 0 0.0 0.0 0.08 0.18 0.18 86 1005.0
20260505182504 14 0 0.0 0.0 0.08 0.18 0.18 86 1005.3
20260505182404 14 0 0.0 0.0 0.08 0.18 0.18 86 1005.1
20260505182306 14 0 0.0 0.0 0.08 0.18 0.18 86 1005.2
20260505182104 14 0 0.0 0.0 0.08 0.18 0.18 86 1005.1
20260505182005 14 0 0.0 0.0 0.08 0.18 0.18 86 1005.1
20260505181905 14 0 0.0 0.0 0.08 0.18 0.18 86 1005.2
20260505181805 14 0 0.0 0.0 0.08 0.18 0.18 86 1005.3
20260505181612 14 0 0.0 0.0 0.08 0.18 0.18 85 1005.1
20260505181504 14 0 0.0 0.0 0.08 0.18 0.18 85 1005.3
20260505181304 14 0 0.0 0.0 0.05 0.18 0.15 85 1005.1
20260505181204 14 0 0.0 0.0 0.05 0.18 0.15 85 1005.1
20260505181104 14 0 0.0 0.0 0.05 0.18 0.15 85 1005.1
20260505180804 14 0 0.0 0.0 0.05 0.15 0.15 85 1005.2
20260505180704 15 0 0.0 0.0 0.05 0.15 0.15 85 1005.2
20260505180604 15 0 0.0 0.0 0.05 0.15 0.15 85 1005.1
20260505180505 15 0 0.0 0.0 0.05 0.15 0.15 85 1005.1
20260505180404 15 0 0.0 0.0 0.05 0.15 0.15 85 1005.1
20260505180204 15 0 0.0 0.0 0.05 0.15 0.15 85 1005.2
20260505180104 15 0 0.0 0.0 0.05 0.15 0.15 85 1005.1
20260505180005 15 0 0.0 0.0 0.05 0.15 0.15 85 1005.0
20260505175905 15 0 0.0 0.0 0.05 0.15 0.15 85 1005.1
20260505175804 15 0 0.0 0.0 0.03 0.15 0.13 85 1005.1
20260505175711 15 0 0.0 0.0 0.03 0.15 0.13 85 1005.3
20260505175704 15 0 0.0 0.0 0.03 0.15 0.13 84 1005.3
20260505175604 15 0 0.0 0.0 0.03 0.15 0.13 84 1005.1
20260505175404 15 0 0.0 0.0 0.03 0.15 0.13 84 1005.1
20260505175305 15 0 0.0 0.0 0.03 0.15 0.13 84 1005.1
20260505175204 15 0 0.0 0.0 0.03 0.15 0.13 84 1005.1
20260505175104 15 89 0.0 1.6 0.03 0.13 0.13 84 1005.2
20260505175005 15 104 0.0 1.6 0.03 0.13 0.13 84 1005.0
20260505174904 15 104 0.0 1.6 0.03 0.13 0.13 84 1005.0
20260505174804 15 91 0.0 3.2 0.03 0.13 0.13 84 1005.0
20260505174704 15 87 0.0 4.8 0.03 0.13 0.13 84 1005.1
20260505174604 15 89 0.0 4.8 0.03 0.13 0.13 84 1005.1
20260505174504 15 89 0.0 4.8 0.00 0.13 0.10 84 1005.2
20260505174404 15 85 0.0 4.8 0.00 0.13 0.10 84 1005.2
20260505174304 15 85 0.0 4.8 0.00 0.13 0.10 84 1005.2
20260505174204 15 84 1.6 4.8 0.00 0.13 0.10 84 1005.3
20260505174104 15 84 1.6 4.8 0.00 0.13 0.10 84 1005.2
20260505173904 15 86 1.6 4.8 0.00 0.10 0.10 84 1005.2
20260505173804 15 86 1.6 4.8 0.00 0.10 0.10 84 1005.1
20260505173712 15 91 1.6 9.7 0.00 0.10 0.10 84 1005.2
20260505173704 15 90 1.6 9.7 0.00 0.10 0.10 84 1005.2
20260505173404 15 93 1.6 9.7 0.00 0.10 0.10 83 1005.0
20260505173305 15 94 1.6 9.7 0.00 0.10 0.10 83 1005.1
20260505173212 15 96 1.6 9.7 0.00 0.10 0.10 83 1005.3
20260505173205 15 98 1.6 9.7 0.00 0.10 0.10 83 1005.3
20260505173104 15 97 1.6 9.7 0.00 0.13 0.10 83 1005.1
20260505172904 15 96 1.6 9.7 0.00 0.13 0.10 83 1005.0
20260505172804 15 95 1.6 9.7 0.00 0.13 0.10 83 1005.2
20260505172712 15 90 1.6 11.3 0.00 0.13 0.10 83 1005.2
20260505172704 15 89 1.6 11.3 0.00 0.13 0.10 83 1005.2
20260505172605 15 88 1.6 11.3 0.00 0.13 0.10 83 1005.1
20260505172404 15 88 1.6 11.3 0.00 0.13 0.10 83 1005.3
20260505172306 15 87 1.6 11.3 0.00 0.13 0.10 82 1005.3
20260505172204 15 84 1.6 11.3 0.00 0.13 0.10 82 1005.2
20260505172104 15 84 1.6 11.3 0.00 0.13 0.10 82 1005.2
20260505172004 15 83 1.6 11.3 0.00 0.13 0.10 82 1005.0
20260505171811 15 78 1.6 11.3 0.00 0.13 0.10 82 1005.2
20260505171804 15 78 3.2 11.3 0.00 0.13 0.10 82 1005.2
20260505171704 15 78 1.6 9.7 0.00 0.13 0.10 82 1005.3
20260505171504 15 71 1.6 4.8 0.00 0.13 0.10 82 1005.1
20260505171404 15 74 1.6 9.7 0.00 0.13 0.10 82 1005.1
20260505171304 15 73 1.6 9.7 0.00 0.13 0.10 81 1005.1
20260505171204 15 70 3.2 9.7 0.00 0.13 0.10 81 1005.1
20260505171004 15 69 3.2 9.7 0.00 0.13 0.10 81 1005.3
20260505170904 15 70 3.2 9.7 0.00 0.13 0.10 81 1005.3
20260505170804 15 69 3.2 9.7 0.00 0.13 0.10 81 1005.3
20260505170712 15 67 3.2 11.3 0.00 0.13 0.10 81 1005.1
20260505170704 15 66 3.2 11.3 0.00 0.13 0.10 81 1005.1
20260505170411 15 64 3.2 11.3 0.00 0.15 0.10 81 1005.3
20260505170404 15 63 3.2 11.3 0.00 0.15 0.10 81 1005.3
20260505170304 15 63 3.2 11.3 0.00 0.15 0.10 81 1005.2
20260505170104 15 63 3.2 11.3 0.00 0.18 0.10 80 1005.4
20260505170006 16 63 3.2 11.3 0.00 0.18 0.10 80 1005.2
20260505165905 16 62 3.2 11.3 0.00 0.20 0.10 80 1005.2
20260505165804 16 62 3.2 11.3 0.00 0.20 0.10 80 1005.1
20260505165704 16 64 3.2 6.4 0.00 0.20 0.10 80 1005.4
20260505165606 16 69 1.6 6.4 0.00 0.23 0.10 80 1005.3
20260505165504 16 69 3.2 9.7 0.00 0.23 0.10 80 1005.2
20260505165404 16 69 1.6 9.7 0.00 0.25 0.10 80 1005.3
20260505165306 16 69 1.6 9.7 0.00 0.28 0.10 80 1005.3
20260505165104 16 67 1.6 9.7 0.00 0.33 0.10 80 1005.3
20260505165004 16 69 3.2 9.7 0.00 0.33 0.10 80 1005.2
20260505164904 16 68 3.2 9.7 0.00 0.36 0.10 80 1005.3
20260505164804 16 68 1.6 9.7 0.00 0.36 0.10 80 1005.5
20260505164604 16 64 3.2 9.7 0.00 0.36 0.10 80 1005.4
20260505164504 16 59 1.6 9.7 0.00 0.36 0.10 80 1005.5
20260505164404 16 59 1.6 9.7 0.00 0.36 0.10 80 1005.4
20260505164304 16 59 1.6 9.7 0.00 0.36 0.10 80 1005.5
20260505164204 16 59 1.6 9.7 0.00 0.36 0.10 80 1005.4
20260505164104 16 59 1.6 6.4 0.00 0.36 0.10 80 1005.3
20260505164004 16 53 1.6 6.4 0.00 0.36 0.10 80 1005.5
20260505163904 16 52 1.6 6.4 0.00 0.36 0.10 80 1005.3
20260505163804 16 50 0.0 6.4 0.00 0.36 0.10 80 1005.5
20260505163705 16 46 0.0 6.4 0.00 0.36 0.10 80 1005.3
20260505163604 16 43 0.0 6.4 0.00 0.36 0.10 80 1005.4
20260505163504 16 65 0.0 3.2 0.00 0.36 0.10 80 1005.4
20260505163404 16 65 0.0 6.4 0.00 0.36 0.10 80 1005.5
20260505163304 16 67 0.0 6.4 0.00 0.36 0.10 80 1005.4
20260505163104 16 67 1.6 6.4 0.00 0.36 0.10 80 1005.4
20260505163004 16 66 1.6 6.4 0.00 0.36 0.10 80 1005.5
20260505162904 16 66 1.6 6.4 0.00 0.36 0.10 80 1005.4
20260505162804 16 65 1.6 6.4 0.00 0.36 0.10 80 1005.5
20260505162704 16 64 1.6 6.4 0.00 0.36 0.10 80 1005.4
20260505162604 16 63 1.6 6.4 0.00 0.36 0.10 80 1005.4
20260505162405 16 66 1.6 6.4 0.00 0.36 0.10 80 1005.4
20260505162306 16 62 1.6 6.4 0.00 0.36 0.10 80 1005.8
20260505162204 16 62 1.6 9.7 0.00 0.36 0.10 80 1005.4
20260505162104 16 62 1.6 9.7 0.03 0.36 0.10 80 1005.5
20260505162006 16 63 1.6 9.7 0.03 0.36 0.10 80 1005.5
20260505161904 16 65 1.6 9.7 0.03 0.36 0.10 80 1005.4
20260505161806 16 65 1.6 9.7 0.03 0.36 0.10 80 1005.5
20260505161704 16 67 1.6 9.7 0.03 0.36 0.10 80 1005.5
20260505161604 16 72 1.6 9.7 0.03 0.36 0.10 80 1005.5
20260505161404 16 70 1.6 9.7 0.03 0.36 0.10 80 1005.6
20260505161306 16 73 1.6 9.7 0.03 0.36 0.10 80 1005.6
20260505161212 16 72 1.6 9.7 0.03 0.36 0.10 80 1005.5
20260505161206 16 71 1.6 9.7 0.03 0.36 0.10 80 1005.5
20260505161112 16 69 3.2 9.7 0.03 0.36 0.10 80 1005.5
20260505160804 16 64 3.2 9.7 0.03 0.36 0.10 81 1005.5
20260505160704 16 62 3.2 9.7 0.03 0.36 0.10 81 1005.8
20260505160606 16 57 3.2 9.7 0.03 0.36 0.10 81 1005.5
20260505160504 16 53 3.2 9.7 0.03 0.36 0.10 81 1005.4
20260505160404 16 51 3.2 6.4 0.03 0.36 0.10 81 1005.5
20260505160304 16 50 3.2 6.4 0.03 0.36 0.10 81 1005.5
20260505160104 16 49 3.2 9.7 0.03 0.36 0.10 81 1005.8
20260505153304 16 51 4.8 12.9 0.03 0.36 0.10 80 1005.8
20260505153204 16 52 4.8 11.3 0.03 0.36 0.10 80 1005.6
20260505153104 17 54 4.8 11.3 0.03 0.36 0.10 79 1005.5
20260505153005 17 55 3.2 9.7 0.03 0.36 0.10 79 1005.6
20260505152911 17 54 3.2 6.4 0.00 0.36 0.10 79 1005.6
20260505152904 17 54 3.2 9.7 0.00 0.36 0.10 79 1005.6
20260505152804 17 57 3.2 9.7 0.00 0.36 0.10 80 1005.8
20260505152604 17 61 3.2 9.7 0.00 0.36 0.10 79 1005.8
20260505152505 17 59 3.2 9.7 0.00 0.36 0.10 79 1005.6
20260505152305 17 60 3.2 9.7 0.00 0.36 0.10 79 1005.5
20260505152204 17 60 3.2 9.7 0.00 0.36 0.10 79 1005.5
20260505152104 17 59 3.2 9.7 0.00 0.33 0.08 78 1005.6
20260505152004 17 59 3.2 9.7 0.00 0.33 0.08 79 1005.6
20260505151904 17 60 3.2 6.4 0.00 0.33 0.08 79 1005.8
20260505151804 17 59 3.2 6.4 0.00 0.33 0.08 78 1005.6
20260505151704 17 60 3.2 6.4 0.00 0.33 0.08 78 1005.8
20260505151604 17 58 3.2 6.4 0.00 0.33 0.08 78 1005.6
20260505151504 17 61 3.2 6.4 0.00 0.33 0.08 78 1005.4
20260505151404 17 59 3.2 9.7 0.00 0.33 0.08 78 1005.6
20260505151304 17 57 3.2 9.7 0.00 0.33 0.08 78 1005.8
20260505151205 17 56 3.2 9.7 0.00 0.33 0.08 78 1005.6
20260505151104 17 55 3.2 9.7 0.00 0.33 0.08 78 1005.9
20260505150904 17 50 4.8 12.9 0.00 0.33 0.08 78 1005.8
20260505150804 17 50 4.8 12.9 0.00 0.33 0.08 78 1006.1
20260505150704 17 48 4.8 12.9 0.00 0.33 0.08 77 1006.0
20260505150605 17 47 4.8 12.9 0.00 0.33 0.08 77 1006.0
20260505150504 17 48 6.4 12.9 0.00 0.33 0.08 77 1005.9
20260505150304 17 47 6.4 12.9 0.00 0.33 0.08 76 1005.9
20260505150213 17 48 6.4 12.9 0.00 0.33 0.08 76 1006.0
20260505150204 17 48 6.4 12.9 0.00 0.33 0.08 76 1006.0
20260505150104 17 48 4.8 12.9 0.00 0.33 0.08 76 1005.9
20260505140604 18 69 3.2 9.7 0.00 0.33 0.08 73 1006.3
20260505140504 18 70 3.2 9.7 0.00 0.33 0.08 74 1006.3
20260505140404 18 70 3.2 9.7 0.00 0.33 0.08 75 1006.3
20260505140304 18 66 3.2 9.7 0.00 0.33 0.08 76 1006.4
20260505140204 18 64 3.2 9.7 0.00 0.33 0.08 74 1006.3
20260505140105 18 61 3.2 11.3 0.00 0.33 0.08 75 1006.2